Location: Casteau
(50.5142°N, 4.0161°E)
Time: 20:31:09
(UTC+00:00)

Transit 2A - Pass Details

Date: 03 August 2021
Orbit: 594 x 964 km, 66.7° (Epoch: 27 September)

Event Time Altitude Azimuth Distance (km) Brightness Sun altitude
Rises 04:06:41 0° 155° (SSE) 2,839 8.9 -1.9°
Reaches altitude 10° 04:10:41 10° 117° (ESE) 1,987 8.7 -1.4°
Maximum altitude 04:11:45 11° 103° (ESE) 1,953 8.9 -1.2°
Drops below altitude 10° 04:12:50 10° 89° (E) 2,023 9.4 -1.1°
Sets 04:17:04 0° 53° (NE) 3,024 11.7 -0.5°
